User: anonymous
Location: Roanoke
(37.2710°N, 79.9420°W)
Time: 18:50:41
(UTC-04:00)
Language:

Cosmos 1441 Rocket - Orbit

View from above orbital plane
View from above orbital plane
View from above satellite
View from above satellite

Ground track
Ground track

The orbit data is extracted from the following two-line orbital elements,

1 13819U 83010B   14292.46581843  .00007662  00000-0  44705-3 0  9793
2 13819 081.1182 211.8170 0034536 336.2797 023.6834 15.11315993726710
Epoch (UTC): 19 October 2014 11:10:46
Eccentricity: 0.0034536
inclination: 81.1182°
perigee height: 508 km
apogee height: 556 km
right ascension of ascending node: 211.8170°
argument of perigee: 336.2797°
revolutions per day: 15.11315993
mean anomaly at epoch: 23.6834°
orbit number at epoch: 72671

The dashed part of the orbit path shows where the satellite is in the earth's shadow,  

DLR